Regional Weather Roundup
Issued by NWS

Home | Current Version | Previous Version | Text Only | Print | Product List | Glossary On
Versions: 1 2 3 4 5 6 7 8 9 10 11 12 13 14 15 16 17 18 19 20 21 22 23 24 25 26 27
000
ASUS45 KREV 221210
RWRNV
NEVADA REGIONAL WEATHER ROUNDUP
NATIONAL WEATHER SERVICE RENO NV
400 AM PST SUN JAN 22 2017

NOTE: "FAIR" INDICATES FEW OR NO CLOUDS BELOW 12,000 FEET WITH NO
SIGNIFICANT WEATHER AND/OR OBSTRUCTIONS TO VISIBILITY.

NVZ001-003-004-221300-
WESTERN NEVADA

CITY           SKY/WX    TMP DP  RH WIND       PRES   REMARKS
RENO           LGT SNOW  32  32 100 CALM      29.63F VSB 1
6HR MIN TEMP:  32; 6HR MAX TEMP:  38; 6HR PCP:  0.06;

CARSON CITY    HVY SNOW  32  30  93 E9        29.65F
MINDEN         LGT SNOW  30  30 100 N10       29.64F VSB 1
PYRAMID LAKE     N/A     36 N/A N/A S13         N/A
FALLON         CLOUDY    37  30  75 VRB6      29.68F
6HR MIN TEMP:  35; 6HR MAX TEMP:  41; 6HR PCP:  0.02;

LOVELOCK       FLURRIES  33  31  92 W5        29.71F
6HR MIN TEMP:  32; 6HR MAX TEMP:  38; 6HR PCP: TRACE;

HAWTHORNE        N/A     39  30  70 E25G31    29.72S
$$

NVZ002-CAZ072-073-221300-
NORTHERN AND CENTRAL SIERRA

CITY           SKY/WX    TMP DP  RH WIND       PRES   REMARKS
S. LAKE TAHOE  LGT SNOW  36  31  82 S15G23    29.57F
6HR MIN TEMP:  27; 6HR MAX TEMP:  36; 6HR PCP:  0.20;

TRUCKEE        LGT SNOW  32  30  93 S14       29.58F
SQUAW VLY 8000   N/A     27  27 100 S23         N/A
SUSANVILLE     LGT SNOW  34  32  93 SE12      29.58F
MAMMOTH LAKES  SNOW      22  22 100 CALM      29.81S VSB 1/2
6HR MIN TEMP:  19; 6HR MAX TEMP:  22;

BRIDGEPORT     LGT SNOW  32  27  81 SW15G26   29.62F VSB 3/4
$$

NVZ030-031-036-221300-
NORTHERN NEVADA

CITY           SKY/WX    TMP DP  RH WIND       PRES   REMARKS
ELKO           CLOUDY    25  17  72 E7        29.82F
6HR MIN TEMP:  19; 6HR MAX TEMP:  32;

WINNEMUCCA     CLOUDY    33  25  72 CALM      29.71F
6HR MIN TEMP:  31; 6HR MAX TEMP:  35;

WENDOVER       PTCLDY    21  18  86 NE9       29.92F
$$

NVZ035-037-221300-
CENTRAL NEVADA

CITY           SKY/WX    TMP DP  RH WIND       PRES   REMARKS
ELY            CLOUDY    25  20  81 S7        29.92F
6HR MIN TEMP:  16; 6HR MAX TEMP:  26;

EUREKA           N/A     28  21  75 SE10      29.84F
6HR MIN TEMP:  19; 6HR MAX TEMP:  32;

$$

NVZ013-014-221300-
SOUTH CENTRAL NEVADA

CITY           SKY/WX    TMP DP  RH WIND       PRES   REMARKS
TONOPAH        LGT SNOW  32  29  88 S14       29.87R FOG
6HR MIN TEMP:  32; 6HR MAX TEMP:  34; 6HR PCP: TRACE;

$$

NVZ017-020-022-221300-
SOUTHERN NEVADA

CITY           SKY/WX    TMP DP  RH WIND       PRES   REMARKS
LAS VEGAS      LGT RAIN  49  34  56 S9        30.00F
6HR MIN TEMP:  47; 6HR MAX TEMP:  49; 6HR PCP: TRACE;

N. LAS VEGAS   CLOUDY    45  35  68 SE6       30.01F
6HR MIN TEMP:  43; 6HR MAX TEMP:  46;

NELLIS AFB     CLOUDY    45  37  72 CALM      30.02F
6HR MIN TEMP:  42; 6HR MAX TEMP:  46;

HENDERSON      CLOUDY    46  34  62 S10       30.03F
6HR MIN TEMP:  42; 6HR MAX TEMP:  46;

MERCURY        LGT RAIN  39  35  86 SW12      29.98F
6HR MIN TEMP:  38; 6HR MAX TEMP:  43; 6HR PCP:  0.01;

$$




USA.gov is the U.S. government's official web portal to all federal, state and local government web resources and services.